User: anonymous
Location: Fremont
(37.5480°N, 121.9880°W)
Time: 18:38:50
(UTC-07:00)
Language:

Cosmos 1766 - Orbit

View from above orbital plane
View from above orbital plane
View from above satellite
View from above satellite

Ground track
Ground track

The orbit data is extracted from the following two-line orbital elements,

1 16881U 86055A   14260.02439507  .00003081  00000-0  20968-3 0  9564
2 16881 082.5096 283.8280 0011267 262.0481 097.9467 15.05933566530022
Epoch (UTC): 17 September 2014 00:35:07
Eccentricity: 0.0011267
inclination: 82.5096°
perigee height: 541 km
apogee height: 556 km
right ascension of ascending node: 283.8280°
argument of perigee: 262.0481°
revolutions per day: 15.05933566
mean anomaly at epoch: 97.9467°
orbit number at epoch: 53002

The dashed part of the orbit path shows where the satellite is in the earth's shadow,  

DLR